Regional Weather Roundup
Issued by NWS Northern Indiana

Home | Current Version | Previous Version | Text Only | Print | Product List | Glossary Off
Versions: 1 2 3 4 5 6 7 8 9 10 11 12 13 14 15 16 17 18 19 20 21 22 23 24 25 26 27 28 29 30 31 32 33 34 35 36 37 38 39 40 41 42 43 44 45 46 47 48 49 50

000
ASUS43 KIWX 220200
RWRIWX

KIWX WEATHER ROUNDUP
NATIONAL WEATHER SERVICE NORTHERN INDIANA
1000 PM EDT THU SEP 21 2017

NOTE: "FAIR" INDICATES FEW OR NO CLOUDS BELOW 12,000 FEET WITH NO
SIGNIFICANT WEATHER AND/OR OBSTRUCTIONS TO VISIBILITY.

* THESE STATIONS ARE NOT UNDER NWS QUALITY CONTROL. THEY ALSO MAY NOT
  REPORT WEATHER SUCH AS PRECIPITATION OR FOG.

INZ001>027-220300-
NORTHERN INDIANA

CITY           SKY/WX    TMP DP  RH WIND       PRES   REMARKS
GARY*          PTCLDY    73  70  88 CALM      30.02R
SOUTH BEND     CLEAR     77  72  84 CALM      30.04S
GOSHEN         CLEAR     75  70  84 SE3       30.05S
FORT WAYNE     PTCLDY    75  69  81 CALM      30.07R

$$
INZ028>050-220300-
CENTRAL INDIANA

CITY           SKY/WX    TMP DP  RH WIND       PRES   REMARKS
LAFAYETTE      CLEAR     74  71  91 CALM      30.03R
KOKOMO*        CLEAR     73  71  93 CALM      30.06S
MUNCIE*        CLEAR     73  70  90 CALM      30.07R
INDIANAPOLIS   PTCLDY    81  66  60 S3        30.06R

$$
MIZ043>046-050>051-056>058-064>065-071>073-077>080-220300-
SOUTHWEST LOWER MICHIGAN

CITY           SKY/WX    TMP DP  RH WIND       PRES   REMARKS
BATTLE CREEK   PTCLDY    73  66  78 E5        30.08S
BENTON HARBOR  CLEAR     76  72  87 E5        30.02S FOG
COLDWATER*     CLEAR     76  65  70 E6        30.08S
HILLSDALE*     PTCLDY    72  63  73 E6        30.10S
HOLLAND        CLEAR     78  65  63 SE7       30.05R
GRAND RAPIDS   MOCLDY    73  64  73 S6        30.05S
KALAMAZOO      CLEAR     74  65  73 E3        30.07S
STURGIS*       CLEAR     75  67  77 E7        30.07R
THREE RIVERS*  FAIR      77  67  71 E6        30.07R

$$
OHZ001>008-015>018-024>025-220300-
NORTHWEST OHIO

CITY           SKY/WX    TMP DP  RH WIND       PRES   REMARKS
DEFIANCE       CLEAR     74  70  87 CALM      30.06S
FINDLAY        CLEAR     79  68  69 SE3       30.07R
TOLEDO EXPRESS CLOUDY    78  75  90 N12       30.07R
TOLEDO METCALF CLEAR     75  69  81 E5        30.07S
LIMA           CLEAR     70  69  97 CALM      30.08R

$$
AND FOR LAKE MICHIGAN COASTAL AND OPEN LAKE BUOY OBSERVATIONS

STATION/POSITION TEMP    WIND        PRES    VSBY  WAVE
                 AIR SEA DIR/SP/G                  HT/PER
                 (F)     (DEG/KT/KT) (MB)    (MI)  (FT/S)
CALUMET HARBOR    76      CALM  /  2 1015.7R
MICHIGAN CITY     81     140/  6/  7   N/A
BURNS HARBOR      83     180/  5/  7 1016.9R
SAINT JOSEPH      79      CALM  /  1 1017.6
SOUTH LAKE BUOY   73 70   70/ 10/ 12 1016.0          0
4 MI NW BRIDGMAN  76 71  150/  4/  6 1016.2R         0
MICHIGAN CITY     76 71  160/  4/  4   N/A           0

$$
&&



USA.gov is the U.S. government's official web portal to all federal, state and local government web resources and services.